Skip Page Navigation
NASA JPL Caltech
NASA Logo - Jet Propulsion Laboratory + View the NASA Portal
+ Near-Earth Object (NEO) Program
Search JPL
JPL Home Earth Solar System Stars & Galaxies Technology
JPL Solar System Dynamics
BODIES ORBITS EPHEMERIDES TOOLS PHYSICAL DATA DISCOVERY FAQ SITE MAP
JPL Small-Body Database Browser
Search: [ help ]  
145451 (2005 RM43)
Classification: TransNeptunian Object          SPK-ID: 2145451
Ephemeris | Orbit Diagram | Orbital Elements | Physical Parameters | Discovery Circumstances ]

[ show orbit diagram ]
Orbital Elements at Epoch 2456800.5 (2014-May-23.0) TDB
Reference: JPL 5 (heliocentric ecliptic J2000)
 Element Value Uncertainty (1-sigma)   Units 
e .61582025899993 6.8957e-05  
a 91.44163298309519 0.017615 AU
q 35.13002287606897 0.00046391 AU
i 28.72475214379535 7.3051e-05 deg
node 84.66567643480914 0.00014137 deg
peri 318.5946303483936 0.0013261 deg
M 3.868281144924896 0.00098433 deg
tp 2453368.637203352841
(2004-Dec-29.13720335)
0.22061 JED
period 319384.9052088392
874.43
92.288
0.2527
d
yr
n .001127166607215214 3.257e-07 deg/d
Q 147.7532430901214 0.028463 AU
  Orbit Determination Parameters
   # obs. used (total)      206  
   data-arc span      13560 days (37.13 yr)  
   first obs. used      1976-11-17  
   last obs. used      2014-01-02  
   planetary ephem.      DE431  
   SB-pert. ephem.      SB431-BIG16  
   condition code      2  
   fit RMS      .39018  
   data source      ORB  
   producer      Otto Matic  
   solution date      2014-Jun-11 07:29:02  

Additional Information
 Earth MOID = 34.1912 AU 
 T_jup = 5.850 
[ show covariance matrix ]

Ephemeris | Orbit Diagram | Orbital Elements | Physical Parameters | Discovery Circumstances ]

Physical Parameter Table
Parameter Symbol Value Units Sigma Reference Notes
absolute magnitude H 4.4 mag n/a MPO226879  
rotation period rot_per 6.71 h n/a Asteroid Lightcurve DataBase (Rev. 2013-Sep-12) Result based on less than full coverage, so that the period may be wrong by 30 percent or so.
Published Reference List:
[Thirouin, A.; Ortiz, J.L.; Duffard, R.; Santos-Sanz, P.; et al. (2010) Astron. Astrophys. 522, A93.]

145451 (2005 RM43)          Discovered 2005-Sep-09 by Becker, A. C., Puckett, A. W., Kubica, J. at Apache Point (705)
Reference: 20061205/Numbers.arcLast Updated: 2006-12-13
Ephemeris | Orbit Diagram | Orbital Elements | Physical Parameters | Discovery Circumstances ]
ABOUT SSD CREDITS/AWARDS PRIVACY/COPYRIGHT GLOSSARY LINKS
FirstGov 2014-Jul-31 13:31 UT
(server date/time)  
NASA Home Page
Site Manager:   Donald K. Yeomans
Webmaster  Alan B. Chamberlin